Regional Weather Roundup
Issued by NWS Little Rock, AR

Home | Current Version | Previous Version | Text Only | Print | Product List | Glossary Off
Versions: 1 2 3 4 5 6 7 8 9 10 11 12 13 14 15 16 17 18 19 20 21 22 23 24 25 26 27 28 29 30 31 32 33 34 35 36 37 38 39 40 41 42 43 44 45 46 47 48 49 50

000
ASUS44 KLZK 031905
RWRLZK

WEATHER ROUNDUP FOR ARKANSAS
NATIONAL WEATHER SERVICE LITTLE ROCK AR
100 PM CST TUE MAR 03 2015

NOTE: "FAIR" INDICATES FEW OR NO CLOUDS BELOW 12,000 FEET WITH NO
SIGNIFICANT WEATHER AND/OR OBSTRUCTIONS TO VISIBILITY.

ARZ001-003-010-029-032000-
NORTHWEST ARKANSAS

CITY           SKY/WX    TMP DP  RH WIND       PRES   REMARKS
FAYETTEVILLE   CLOUDY    48  48 100 SW14      29.90F
FORT SMITH     FOG       41  39  93 SE5       29.95F VSB 1
HARRISON       CLOUDY    56  52  86 SW12G20   29.87F
BENTONVILLE    CLOUDY    48  45  87 SW17      29.87F
ROGERS         CLOUDY    49  47  93 S22       29.86F
SILOAM SPGS    CLOUDY    46  43  87 SW16G28   29.88F
HIGHFILL       CLOUDY    48  46  93 SW20G28   29.86F
SPRINGDALE     CLOUDY    48  48 100 SW17G24   29.90F FOG
$$

ARZ004-005-016-032000-
NORTH CENTRAL ARKANSAS

CITY           SKY/WX    TMP DP  RH WIND       PRES   REMARKS
BATESVILLE     CLOUDY    48  45  87 SW8       29.96F
FLIPPIN        CLOUDY    57  50  77 SW10G18   29.87F
MTN HOME       CLOUDY    56  50  80 SW9       29.87F
$$

ARZ040-041-032000-
WEST CENTRAL ARKANSAS

CITY           SKY/WX    TMP DP  RH WIND       PRES   REMARKS
MENA           CLOUDY    54  54 100 W6        29.94F
MOUNT IDA      CLOUDY    57  52  83 VRB5      29.93F
$$

ARZ009-017-025-026-028-032000-
NORTHEAST ARKANSAS

CITY           SKY/WX    TMP DP  RH WIND       PRES   REMARKS
CORNING        FAIR      43  41  93 SW18      29.94F FOG
JONESBORO      CLOUDY    45  44  97 SW14      29.97F
NEWPORT        CLOUDY    47  44  89 S16       29.98F
WALNUT RIDGE   CLOUDY    45  37  76 SW16      29.94F
BLYTHEVILLE    CLOUDY    51  51 100 SW15      29.95F FOG
NW BLYTHEVILLE FOG       50  48  93 SW12G21   29.96F VSB 1/2
$$

ARZ022-023-033-042-044-032000-
CENTRAL ARKANSAS

CITY           SKY/WX    TMP DP  RH WIND       PRES   REMARKS
LITTLE ROCK    CLOUDY    47  42  83 S7        30.00F
N LITTLE ROCK  CLOUDY    49  46  90 S9G16     30.00F
JACKSONVILLE   CLOUDY    49  44  84 S6        29.96F
SEARCY         CLOUDY    50  45  83 S9        29.98F
HOT SPRINGS    CLOUDY    47  44  90 VRB3      29.98F FOG
RUSSELLVILLE   CLOUDY    49  43  80 CALM      29.94F
CLINTON        CLOUDY    45  41  87 CALM      29.97F FOG
$$

ARZ036-032000-
EAST ARKANSAS

CITY           SKY/WX    TMP DP  RH WIND       PRES   REMARKS
WEST MEMPHIS   CLOUDY    50  50 100 S10       29.99F FOG
$$

ARZ050-053-066-070-073-032000-
SOUTHWEST ARKANSAS

CITY           SKY/WX    TMP DP  RH WIND       PRES   REMARKS
ARKADELPHIA    FOG       43  43 100 S3        30.01F VSB 1
CAMDEN         FOG       48  45  87 CALM      30.01F VSB 1/4
TEXARKANA      CLOUDY    56  54  93 S8        29.97F
EL DORADO      LGT RAIN  52  51  97 CALM      30.00F FOG
DE QUEEN       CLOUDY    46  44  93 E5        29.96F FOG
$$

ARZ056-057-069-032000-
SOUTHEAST ARKANSAS

CITY           SKY/WX    TMP DP  RH WIND       PRES   REMARKS
PINE BLUFF     FOG       47  46  97 S3        30.01F VSB 1/4
STUTTGART      CLOUDY    45  43  93 SW7       30.02F VSB 1
MONTICELLO     LGT RAIN  55  54  96 S9        30.01F FOG

$$





USA.gov is the U.S. government's official web portal to all federal, state and local government web resources and services.